Location: Newark
(49.1939°N, 0.8136°E)
Time: 16:24:06
(UTC+00:00)

Envisat - Pass Details

Date: 25 November 2019
Orbit: 764 x 766 km, 98.1° (Epoch: 07 December)

Event Time Altitude Azimuth Distance (km) Brightness Sun altitude
Rises 05:35:44 0° 27° (NNE) 3,243 6.4 -16.8°
Reaches altitude 10° 05:38:47 10° 46° (NE) 2,311 5.9 -16.3°
Maximum altitude 05:42:15 18° 89° (E) 1,802 5.9 -15.7°
Drops below altitude 10° 05:45:42 10° 132° (SE) 2,299 6.5 -15.2°
Sets 05:48:42 0° 151° (SSE) 3,219 6.9 -14.7°
